Regional Weather Roundup
Issued by NWS Portland, ME

Home | Current Version | Previous Version | Text Only | Print | Product List | Glossary On
Versions: 1 2 3 4 5 6 7 8 9 10 11 12 13 14 15 16 17 18 19 20 21 22 23 24 25 26 27 28 29 30 31 32 33 34 35 36 37 38 39 40 41 42 43 44 45 46 47 48 49 50
000
ASUS41 KGYX 030805
RWRGYX
WEATHER ROUNDUP FOR MAINE AND NEW HAMPSHIRE
NATIONAL WEATHER SERVICE GRAY ME
400 AM EDT WED SEP 03 2014

MEZ002-005-006-010-012-015-018-020-021-024-026-027-029-030900-
MAINE

CITY           SKY/WX    TMP DP  RH WIND       PRES   REMARKS
PORTLAND       LGT RAIN  73  69  87 W9        29.67S
SANFORD        CLOUDY    72  64  78 W14       29.70S
BAR HARBOR     CLOUDY    66  66 100 S8        29.66S
WISCASSET      CLOUDY    70  68  93 SW5       29.68R
ROCKLAND       CLOUDY    66  66 100 SW6       29.65S
FRYEBURG       CLOUDY    70  63  78 VRB6      29.73R
LEWISTONAUBURN CLOUDY    70  66  88 NW8       29.70R
AUGUSTA        LGT RAIN  69  68  96 W5        29.68R FOG
WATERVILLE     CLOUDY    70  68  94 SW5       29.64R
BANGOR         FOG       67  65  93 S8        29.65S VSB 1
GREENVILLE       N/A     63  62  97 NW8       29.69R
MILLINOCKET    RAIN      68  66  93 VRB3      29.66R FOG
HOULTON        CLOUDY    66  65  96 S7        29.62F FOG
PRESQUE ISLE   CLOUDY    70  66  88 SW7G17    29.60R
FRENCHVILLE    RAIN      65  64  97 W9        29.61S FOG
CARIBOU        LGT RAIN  69  67  93 W8        29.60R
$$

NHZ002-005-008-009-011-012-014-030900-
NEW HAMPSHIRE

CITY           SKY/WX    TMP DP  RH WIND       PRES   REMARKS
PORTSMOUTH     PTCLDY    72  69  90 W8        29.70R
ROCHESTER      CLOUDY    72  68  87 NW13G20   29.70S
NASHUA         PTCLDY    71  68  90 W3        29.76R
MANCHESTER     PTCLDY    72  66  81 NW8G18    29.74R
CONCORD        MOCLDY    70  66  87 NW8       29.75R
LACONIA        MOCLDY    68  63  83 W3        29.76R
PLYMOUTH       MOCLDY    66  66  99 NW7       29.77R
BERLIN         NOT AVBL
WHITEFIELD     MOCLDY    64  60  87 CALM      29.81R
JAFFREY        PTCLDY    67  63  87 W8        29.81R
LEBANON        PTCLDY    68  63  84 W5        29.80R
MT WASHINGTON  DRZL/FOG  46  46 100 NW54G64     N/A  VSB 0
$$

VTZ005-007-008-030900-
VERMONT

CITY           SKY/WX    TMP DP  RH WIND       PRES   REMARKS
ST JOHNSBURY     N/A     62  62 100 MISG      29.78R
MONTPELIER     CLOUDY    62  60  93 NW5       29.86R
BURLINGTON     PTCLDY    66  61  84 NW5       29.81S
$$

MAZ007-012-024-CTZ003-RIZ002-NYZ038-NYZ072-030900-
SOUTHERN NEW ENGLAND AND NY

CITY           SKY/WX    TMP DP  RH WIND       PRES   REMARKS
BOSTON         PTCLDY    76  70  82 W14G20    29.73R
WORCESTER      PTCLDY    69  63  81 W14G25    29.81R
NANTUCKET      CLEAR     72  68  87 SW16G23   29.77S
PROVIDENCE     PTCLDY    78  69  73 W10G18    29.76R
HARTFORD       PTCLDY    72  60  66 NW15G31   29.81R
ALBANY         MOCLDY    67  61  81 W7        29.88R
NEW YORK CITY  PTCLDY    75  64  68 NW10G18   29.86R
$$

ANZ081-ANZ082-ANZ150-NHZ014-MEZ023>029-030900-
COASTAL MARINE OBSERVATIONS

STATION/POSITION TIME  TEMP    WIND        PRES    WAVE
                       AIR SEA DIR/SP/G            HT/PER
                 (UTC) (F)     (DEG/KT/KT) (MB)    (FT/S)
MOUNT DESERT ROC 0800   62                 1004.3
MATINICUS ROCK   0700          190/ 20/ 21 1003.9F
PORTLAND WX BUOY 0750   66 62  220/ 14/ 16 1004.2R   2/ 4
WELLS            0700   74 59  270/ 10/ 15 1004.1R
ISLE OF SHOALS   0700   74     240/ 20/ 21 1004.9R
JEFFREYS LEDGE   0721      67                N/A     3/ 4
CASHES LEDGE BUO 0750   71 68              1004.1F   4/ 5
$$

.............KEY..............
   WCI - WIND CHILL
   TC  - TEMPERATURE IN CELSIUS
   VSB - VISIBILITY IN MILES
   HX  - HEAT INDEX
   FAIR- INDICATES FEW OR NO CLOUDS BELOW 12,000 FT, WITH NO
         SIGNIFICANT WEATHER AND/OR OBSTRUCTIONS TO VISIBILITY.





USA.gov is the U.S. government's official web portal to all federal, state and local government web resources and services.